Year,Month,Day,Hour,Minute,Value (Times are PST for temperature in C)
2016,04,18,00,00,10.30
2016,04,18,00,01,10.30
2016,04,18,00,02,10.30
2016,04,18,00,03,10.30
2016,04,18,00,04,10.30
2016,04,18,00,05,10.30
2016,04,18,00,06,10.30
2016,04,18,00,07,10.30
2016,04,18,00,08,10.30
2016,04,18,00,09,10.30
2016,04,18,00,10,10.30
2016,04,18,00,11,10.30
2016,04,18,00,12,10.30
2016,04,18,00,13,10.30
2016,04,18,00,14,10.30
2016,04,18,00,15,10.30
2016,04,18,00,16,10.30
2016,04,18,00,17,10.30
2016,04,18,00,18,10.30
2016,04,18,00,19,10.30
2016,04,18,00,20,10.30
2016,04,18,00,21,10.30
2016,04,18,00,22,10.30
2016,04,18,00,23,10.30
2016,04,18,00,24,10.30
2016,04,18,00,25,10.30
2016,04,18,00,26,10.30
2016,04,18,00,27,10.30
2016,04,18,00,28,10.30
2016,04,18,00,29,10.30
2016,04,18,00,30,10.30
2016,04,18,00,31,10.30
2016,04,18,00,32,10.30
2016,04,18,00,33,10.30
2016,04,18,00,34,10.30
2016,04,18,00,35,10.30
2016,04,18,00,36,10.30
2016,04,18,00,37,10.30
2016,04,18,00,38,10.30
2016,04,18,00,39,10.30
2016,04,18,00,40,10.30
2016,04,18,00,41,10.30
2016,04,18,00,42,10.30
2016,04,18,00,43,10.30
2016,04,18,00,44,10.30
2016,04,18,00,45,10.30
2016,04,18,00,46,10.30
2016,04,18,00,47,10.30
2016,04,18,00,48,10.30
2016,04,18,00,49,10.30
2016,04,18,00,50,10.30
2016,04,18,00,51,10.30
2016,04,18,00,52,10.30
2016,04,18,00,53,10.30
2016,04,18,00,54,10.30
2016,04,18,00,55,10.40
2016,04,18,00,56,10.40
2016,04,18,00,57,10.40
2016,04,18,00,58,10.40
2016,04,18,00,59,10.40
2016,04,18,01,00,10.40
2016,04,18,01,01,10.40
2016,04,18,01,02,10.40
2016,04,18,01,03,10.40
2016,04,18,01,04,10.40
2016,04,18,01,05,10.40
2016,04,18,01,06,10.40
2016,04,18,01,07,10.40
2016,04,18,01,08,10.40
2016,04,18,01,09,10.40
2016,04,18,01,10,10.40
2016,04,18,01,11,10.40
2016,04,18,01,12,10.40
2016,04,18,01,13,10.40
2016,04,18,01,14,10.40
2016,04,18,01,15,10.40
2016,04,18,01,16,10.40
2016,04,18,01,17,10.40
2016,04,18,01,18,10.30
2016,04,18,01,19,10.30
2016,04,18,01,20,10.30
2016,04,18,01,21,10.30
2016,04,18,01,22,10.30
2016,04,18,01,23,10.30
2016,04,18,01,24,10.30
2016,04,18,01,25,10.30
2016,04,18,01,26,10.30
2016,04,18,01,27,10.30
2016,04,18,01,28,10.30
2016,04,18,01,29,10.30
2016,04,18,01,30,10.30
2016,04,18,01,31,10.30
2016,04,18,01,32,10.30
2016,04,18,01,33,10.30
2016,04,18,01,34,10.30
2016,04,18,01,35,10.30
2016,04,18,01,36,10.30
2016,04,18,01,37,10.30
2016,04,18,01,38,10.30
2016,04,18,01,39,10.30
2016,04,18,01,40,10.30
2016,04,18,01,41,10.30
2016,04,18,01,42,10.30
2016,04,18,01,43,10.40
2016,04,18,01,44,10.40
2016,04,18,01,45,10.40
2016,04,18,01,46,10.40
2016,04,18,01,47,10.40
2016,04,18,01,48,10.40
2016,04,18,01,49,10.40
2016,04,18,01,50,10.40
2016,04,18,01,51,10.40
2016,04,18,01,52,10.40
2016,04,18,01,53,10.40
2016,04,18,01,54,10.40
2016,04,18,01,55,10.50
2016,04,18,01,56,10.40
2016,04,18,01,57,10.40
2016,04,18,01,58,10.50
2016,04,18,01,59,10.40
2016,04,18,02,00,10.50
2016,04,18,02,01,10.40
2016,04,18,02,02,10.40
2016,04,18,02,03,10.40
2016,04,18,02,04,10.40
2016,04,18,02,05,10.40
2016,04,18,02,06,10.40
2016,04,18,02,07,10.40
2016,04,18,02,08,10.40
2016,04,18,02,09,10.40
2016,04,18,02,10,10.40
2016,04,18,02,11,10.40
2016,04,18,02,12,10.40
2016,04,18,02,13,10.40
2016,04,18,02,14,10.40
2016,04,18,02,15,10.40
2016,04,18,02,16,10.40
2016,04,18,02,17,10.40
2016,04,18,02,18,10.30
2016,04,18,02,19,10.30
2016,04,18,02,20,10.30
2016,04,18,02,21,10.30
2016,04,18,02,22,10.30
2016,04,18,02,23,10.30
2016,04,18,02,24,10.30
2016,04,18,02,25,10.30
2016,04,18,02,26,10.30
2016,04,18,02,27,10.30
2016,04,18,02,28,10.30
2016,04,18,02,29,10.30
2016,04,18,02,30,10.30
2016,04,18,02,31,10.30
2016,04,18,02,32,10.30
2016,04,18,02,33,10.30
2016,04,18,02,34,10.30
2016,04,18,02,35,10.30
2016,04,18,02,36,10.30
2016,04,18,02,37,10.30
2016,04,18,02,38,10.30
2016,04,18,02,39,10.20
2016,04,18,02,40,10.20
2016,04,18,02,41,10.20
2016,04,18,02,42,10.20
2016,04,18,02,43,10.20
2016,04,18,02,44,10.20
2016,04,18,02,45,10.20
2016,04,18,02,46,10.20
2016,04,18,02,47,10.20
2016,04,18,02,48,10.20
2016,04,18,02,49,10.20
2016,04,18,02,50,10.20
2016,04,18,02,51,10.20
2016,04,18,02,52,10.20
2016,04,18,02,53,10.20
2016,04,18,02,54,10.20
2016,04,18,02,55,10.20
2016,04,18,02,56,10.20
2016,04,18,02,57,10.20
2016,04,18,02,58,10.20
2016,04,18,02,59,10.20
2016,04,18,03,00,10.20
2016,04,18,03,01,10.20
2016,04,18,03,02,10.20
2016,04,18,03,03,10.20
2016,04,18,03,04,10.10
2016,04,18,03,05,10.10
2016,04,18,03,06,10.10
2016,04,18,03,07,10.10
2016,04,18,03,08,10.10
2016,04,18,03,09,10.10
2016,04,18,03,10,10.10
2016,04,18,03,11,10.10
2016,04,18,03,12,10.10
2016,04,18,03,13,10.10
2016,04,18,03,14,10.10
2016,04,18,03,15,10.10
2016,04,18,03,16,10.10
2016,04,18,03,17,10.10
2016,04,18,03,18,10.10
2016,04,18,03,19,10.10
2016,04,18,03,20,10.10
2016,04,18,03,21,10.10
2016,04,18,03,22,10.10
2016,04,18,03,23,10.10
2016,04,18,03,24,10.10
2016,04,18,03,25,10.10
2016,04,18,03,26,10.10
2016,04,18,03,27,10.10
2016,04,18,03,28,10.10
2016,04,18,03,29,10.10
2016,04,18,03,30,10.10
2016,04,18,03,31,10.20
2016,04,18,03,32,10.20
2016,04,18,03,33,10.20
2016,04,18,03,34,10.20
2016,04,18,03,35,10.20
2016,04,18,03,36,10.20
2016,04,18,03,37,10.20
2016,04,18,03,38,10.20
2016,04,18,03,39,10.20
2016,04,18,03,40,10.20
2016,04,18,03,41,10.20
2016,04,18,03,42,10.20
2016,04,18,03,43,10.20
2016,04,18,03,44,10.20
2016,04,18,03,45,10.20
2016,04,18,03,46,10.20
2016,04,18,03,47,10.20
2016,04,18,03,48,10.20
2016,04,18,03,49,10.20
2016,04,18,03,50,10.20
2016,04,18,03,51,10.20
2016,04,18,03,52,10.10
2016,04,18,03,53,10.10
2016,04,18,03,54,10.10
2016,04,18,03,55,10.10
2016,04,18,03,56,10.10
2016,04,18,03,57,10.10
2016,04,18,03,58,10.10
2016,04,18,03,59,10.10
2016,04,18,04,00,10.10
2016,04,18,04,01,10.10
2016,04,18,04,02,10.00
2016,04,18,04,03,10.00
2016,04,18,04,04,10.00
2016,04,18,04,05,10.00
2016,04,18,04,06,10.00
2016,04,18,04,07,10.00
2016,04,18,04,08,10.00
2016,04,18,04,09,10.00
2016,04,18,04,10,10.00
2016,04,18,04,11,10.00
2016,04,18,04,12,10.00
2016,04,18,04,13,10.00
2016,04,18,04,14,10.00
2016,04,18,04,15,10.00
2016,04,18,04,16,10.00
2016,04,18,04,17,10.00
2016,04,18,04,18,10.00
2016,04,18,04,19,10.10
2016,04,18,04,20,10.10
2016,04,18,04,21,10.10
2016,04,18,04,22,10.10
2016,04,18,04,23,10.10
2016,04,18,04,24,10.10
2016,04,18,04,25,10.10
2016,04,18,04,26,10.10
2016,04,18,04,27,10.10
2016,04,18,04,28,10.10
2016,04,18,04,29,10.10
2016,04,18,04,30,10.10
2016,04,18,04,31,10.10
2016,04,18,04,32,10.10
2016,04,18,04,33,10.10
2016,04,18,04,34,10.10
2016,04,18,04,35,10.10
2016,04,18,04,36,10.10
2016,04,18,04,37,10.10
2016,04,18,04,38,10.10
2016,04,18,04,39,10.10
2016,04,18,04,40,10.10
2016,04,18,04,41,10.10
2016,04,18,04,42,10.10
2016,04,18,04,43,10.10
2016,04,18,04,44,10.10
2016,04,18,04,45,10.10
2016,04,18,04,46,10.10
2016,04,18,04,47,10.10
2016,04,18,04,48,10.10
2016,04,18,04,49,10.10
2016,04,18,04,50,10.10
2016,04,18,04,51,10.10
2016,04,18,04,52,10.10
2016,04,18,04,53,10.10
2016,04,18,04,54,10.10
2016,04,18,04,55,10.10
2016,04,18,04,56,10.20
2016,04,18,04,57,10.20
2016,04,18,04,58,10.20
2016,04,18,04,59,10.20
2016,04,18,05,00,10.20
2016,04,18,05,01,10.20
2016,04,18,05,02,10.20
2016,04,18,05,03,10.20
2016,04,18,05,04,10.20
2016,04,18,05,05,10.20
2016,04,18,05,06,10.20
2016,04,18,05,07,10.20
2016,04,18,05,08,10.20
2016,04,18,05,09,10.20
2016,04,18,05,10,10.20
2016,04,18,05,11,10.20
2016,04,18,05,12,10.20
2016,04,18,05,13,10.20
2016,04,18,05,14,10.20
2016,04,18,05,15,10.20
2016,04,18,05,16,10.20
2016,04,18,05,17,10.20
2016,04,18,05,18,10.20
2016,04,18,05,19,10.20
2016,04,18,05,20,10.20
2016,04,18,05,21,10.20
2016,04,18,05,22,10.20
2016,04,18,05,23,10.20
2016,04,18,05,24,10.20
2016,04,18,05,25,10.20
2016,04,18,05,26,10.20
2016,04,18,05,27,10.20
2016,04,18,05,28,10.20
2016,04,18,05,29,10.20
2016,04,18,05,30,10.20
2016,04,18,05,31,10.20
2016,04,18,05,32,10.20
2016,04,18,05,33,10.20
2016,04,18,05,34,10.20
2016,04,18,05,35,10.20
2016,04,18,05,36,10.20
2016,04,18,05,37,10.20
2016,04,18,05,38,10.20
2016,04,18,05,39,10.20
2016,04,18,05,40,10.20
2016,04,18,05,41,10.20
2016,04,18,05,42,10.10
2016,04,18,05,43,10.10
2016,04,18,05,44,10.10
2016,04,18,05,45,10.10
2016,04,18,05,46,10.10
2016,04,18,05,47,10.10
2016,04,18,05,48,10.10
2016,04,18,05,49,10.10
2016,04,18,05,50,10.10
2016,04,18,05,51,10.10
2016,04,18,05,52,10.10
2016,04,18,05,53,10.10
2016,04,18,05,54,10.10
2016,04,18,05,55,10.10
2016,04,18,05,56,10.10
2016,04,18,05,57,10.10
2016,04,18,05,58,10.10
2016,04,18,05,59,10.10
2016,04,18,06,00,10.10
2016,04,18,06,01,10.10
2016,04,18,06,02,10.10
2016,04,18,06,03,10.10
2016,04,18,06,04,10.10
2016,04,18,06,05,10.10
2016,04,18,06,06,10.10
2016,04,18,06,07,10.10
2016,04,18,06,08,10.10
2016,04,18,06,09,10.10
2016,04,18,06,10,10.10
2016,04,18,06,11,10.10
2016,04,18,06,12,10.10
2016,04,18,06,13,10.10
2016,04,18,06,14,10.10
2016,04,18,06,15,10.10
2016,04,18,06,16,10.10
2016,04,18,06,17,10.10
2016,04,18,06,18,10.10
2016,04,18,06,19,10.10
2016,04,18,06,20,10.10
2016,04,18,06,21,10.10
2016,04,18,06,22,10.10
2016,04,18,06,23,10.10
2016,04,18,06,24,10.10
2016,04,18,06,25,10.10
2016,04,18,06,26,10.10
2016,04,18,06,27,10.10
2016,04,18,06,28,10.10
2016,04,18,06,29,10.10
2016,04,18,06,30,10.10
2016,04,18,06,31,10.10
2016,04,18,06,32,10.10
2016,04,18,06,33,10.10
2016,04,18,06,34,10.10
2016,04,18,06,35,10.10
2016,04,18,06,36,10.10
2016,04,18,06,37,10.10
2016,04,18,06,38,10.10
2016,04,18,06,39,10.10
2016,04,18,06,40,10.10
2016,04,18,06,41,10.10
2016,04,18,06,42,10.10
2016,04,18,06,43,10.10
2016,04,18,06,44,10.10
2016,04,18,06,45,10.10
2016,04,18,06,46,10.10
2016,04,18,06,47,10.10
2016,04,18,06,48,10.20
2016,04,18,06,49,10.20
2016,04,18,06,50,10.20
2016,04,18,06,51,10.20
2016,04,18,06,52,10.20
2016,04,18,06,53,10.20
2016,04,18,06,54,10.20
2016,04,18,06,55,10.30
2016,04,18,06,56,10.30
2016,04,18,06,57,10.30
2016,04,18,06,58,10.40
2016,04,18,06,59,10.40
2016,04,18,07,00,10.50
2016,04,18,07,01,10.50
2016,04,18,07,02,10.60
2016,04,18,07,03,10.60
2016,04,18,07,04,10.70
2016,04,18,07,05,10.70
2016,04,18,07,06,10.70
2016,04,18,07,07,10.80
2016,04,18,07,08,10.80
2016,04,18,07,09,10.90
2016,04,18,07,10,10.90
2016,04,18,07,11,10.90
2016,04,18,07,12,11.00
2016,04,18,07,13,11.00
2016,04,18,07,14,11.00
2016,04,18,07,15,11.00
2016,04,18,07,16,11.00
2016,04,18,07,17,11.10
2016,04,18,07,18,11.10
2016,04,18,07,19,11.10
2016,04,18,07,20,11.20
2016,04,18,07,21,11.20
2016,04,18,07,22,11.20
2016,04,18,07,23,11.20
2016,04,18,07,24,11.20
2016,04,18,07,25,11.20
2016,04,18,07,26,11.30
2016,04,18,07,27,11.30
2016,04,18,07,28,11.30
2016,04,18,07,29,11.30
2016,04,18,07,30,11.30
2016,04,18,07,31,11.30
2016,04,18,07,32,11.40
2016,04,18,07,33,11.40
2016,04,18,07,34,11.40
2016,04,18,07,35,11.50
2016,04,18,07,36,11.50
2016,04,18,07,37,11.60
2016,04,18,07,38,11.70
2016,04,18,07,39,11.70
2016,04,18,07,40,11.80
2016,04,18,07,41,11.80
2016,04,18,07,42,11.90
2016,04,18,07,43,11.90
2016,04,18,07,44,12.00
2016,04,18,07,45,12.10
2016,04,18,07,46,12.10
2016,04,18,07,47,12.20
2016,04,18,07,48,12.30
2016,04,18,07,49,12.30
2016,04,18,07,50,12.40
2016,04,18,07,51,12.40
2016,04,18,07,52,12.50
2016,04,18,07,53,12.50
2016,04,18,07,54,12.60
2016,04,18,07,55,12.70
2016,04,18,07,56,12.80
2016,04,18,07,57,12.80
2016,04,18,07,58,12.80
2016,04,18,07,59,12.90
2016,04,18,08,00,12.90
2016,04,18,08,01,13.00
2016,04,18,08,02,13.00
2016,04,18,08,03,13.10
2016,04,18,08,04,13.10
2016,04,18,08,05,13.10
2016,04,18,08,06,13.20
2016,04,18,08,07,13.20
2016,04,18,08,08,13.30
2016,04,18,08,09,13.30
2016,04,18,08,10,13.30
2016,04,18,08,11,13.30
2016,04,18,08,12,13.40
2016,04,18,08,13,13.40
2016,04,18,08,14,13.40
2016,04,18,08,15,13.40
2016,04,18,08,16,13.50
2016,04,18,08,17,13.50
2016,04,18,08,18,13.50
2016,04,18,08,19,13.60
2016,04,18,08,20,13.60
2016,04,18,08,21,13.70
2016,04,18,08,22,13.70
2016,04,18,08,23,13.80
2016,04,18,08,24,13.80
2016,04,18,08,25,13.90
2016,04,18,08,26,14.00
2016,04,18,08,27,14.00
2016,04,18,08,28,14.10
2016,04,18,08,29,14.10
2016,04,18,08,30,14.20
2016,04,18,08,31,14.20
2016,04,18,08,32,14.30
2016,04,18,08,33,14.30
2016,04,18,08,34,14.40
2016,04,18,08,35,14.50
2016,04,18,08,36,14.60
2016,04,18,08,37,14.60
2016,04,18,08,38,14.70
2016,04,18,08,39,14.70
2016,04,18,08,40,14.80
2016,04,18,08,41,14.90
2016,04,18,08,42,14.90
2016,04,18,08,43,15.00
2016,04,18,08,44,15.00
2016,04,18,08,45,15.10
2016,04,18,08,46,15.10
2016,04,18,08,47,15.20
2016,04,18,08,48,15.30
2016,04,18,08,49,15.30
2016,04,18,08,50,15.40
2016,04,18,08,51,15.40
2016,04,18,08,52,15.50
2016,04,18,08,53,15.60
2016,04,18,08,54,15.70
2016,04,18,08,55,15.70
2016,04,18,08,56,15.80
2016,04,18,08,57,15.80
2016,04,18,08,58,15.90
2016,04,18,08,59,15.90
2016,04,18,09,00,16.00
2016,04,18,09,01,16.10
2016,04,18,09,02,16.10
2016,04,18,09,03,16.20
2016,04,18,09,04,16.30
2016,04,18,09,05,16.30
2016,04,18,09,06,16.40
2016,04,18,09,07,16.50
2016,04,18,09,08,16.50
2016,04,18,09,09,16.60
2016,04,18,09,10,16.60
2016,04,18,09,11,16.70
2016,04,18,09,12,16.70
2016,04,18,09,13,16.80
2016,04,18,09,14,16.90
2016,04,18,09,15,16.90
2016,04,18,09,16,17.00
2016,04,18,09,17,17.10
2016,04,18,09,18,17.10
2016,04,18,09,19,17.10
2016,04,18,09,20,17.20
2016,04,18,09,21,17.20
2016,04,18,09,22,17.30
2016,04,18,09,23,17.40
2016,04,18,09,24,17.50
2016,04,18,09,25,17.60
2016,04,18,09,26,17.80
2016,04,18,09,27,17.80
2016,04,18,09,28,17.90
2016,04,18,09,29,18.00
2016,04,18,09,30,18.10
2016,04,18,09,31,18.20
2016,04,18,09,32,18.30
2016,04,18,09,33,18.30
2016,04,18,09,34,18.40
2016,04,18,09,35,18.30
2016,04,18,09,36,18.30
2016,04,18,09,37,18.40
2016,04,18,09,38,18.40
2016,04,18,09,39,18.50
2016,04,18,09,40,18.60
2016,04,18,09,41,18.60
2016,04,18,09,42,18.60
2016,04,18,09,43,18.60
2016,04,18,09,44,18.60
2016,04,18,09,45,18.50
2016,04,18,09,46,18.50
2016,04,18,09,47,18.50
2016,04,18,09,48,18.40
2016,04,18,09,49,18.40
2016,04,18,09,50,18.40
2016,04,18,09,51,18.40
2016,04,18,09,52,18.40
2016,04,18,09,53,18.40
2016,04,18,09,54,18.40
2016,04,18,09,55,18.40
2016,04,18,09,56,18.40
2016,04,18,09,57,18.40
2016,04,18,09,58,18.40
2016,04,18,09,59,18.40
2016,04,18,10,00,18.30
2016,04,18,10,01,18.30
2016,04,18,10,02,18.30
2016,04,18,10,03,18.30
2016,04,18,10,04,18.40
2016,04,18,10,05,18.40
2016,04,18,10,06,18.40
2016,04,18,10,07,18.40
2016,04,18,10,08,18.50
2016,04,18,10,09,18.50
2016,04,18,10,10,18.60
2016,04,18,10,11,18.60
2016,04,18,10,12,18.60
2016,04,18,10,13,18.60
2016,04,18,10,14,18.70
2016,04,18,10,15,18.70
2016,04,18,10,16,18.70
2016,04,18,10,17,18.70
2016,04,18,10,18,18.70
2016,04,18,10,19,18.70
2016,04,18,10,20,18.80
2016,04,18,10,21,18.80
2016,04,18,10,22,18.90
2016,04,18,10,23,19.00
2016,04,18,10,24,19.10
2016,04,18,10,25,19.20
2016,04,18,10,26,19.30
2016,04,18,10,27,19.30
2016,04,18,10,28,19.40
2016,04,18,10,29,19.40
2016,04,18,10,30,19.40
2016,04,18,10,31,19.50
2016,04,18,10,32,19.50
2016,04,18,10,33,19.60
2016,04,18,10,34,19.70
2016,04,18,10,35,19.70
2016,04,18,10,36,19.80
2016,04,18,10,37,19.80
2016,04,18,10,38,19.80
2016,04,18,10,39,19.80
2016,04,18,10,40,19.90
2016,04,18,10,41,19.90
2016,04,18,10,42,19.90
2016,04,18,10,43,20.00
2016,04,18,10,44,20.00
2016,04,18,10,45,20.10
2016,04,18,10,46,20.10
2016,04,18,10,47,20.20
2016,04,18,10,48,20.20
2016,04,18,10,49,20.20
2016,04,18,10,50,20.30
2016,04,18,10,51,20.40
2016,04,18,10,52,20.40
2016,04,18,10,53,20.50
2016,04,18,10,54,20.60
2016,04,18,10,55,20.60
2016,04,18,10,56,20.80
2016,04,18,10,57,20.80
2016,04,18,10,58,20.90
2016,04,18,10,59,20.90
2016,04,18,11,00,20.90
2016,04,18,11,01,21.00
2016,04,18,11,02,21.10
2016,04,18,11,03,21.10
2016,04,18,11,04,21.10
2016,04,18,11,05,21.10
2016,04,18,11,06,21.10
2016,04,18,11,07,21.20
2016,04,18,11,08,21.10
2016,04,18,11,09,21.20
2016,04,18,11,10,21.20
2016,04,18,11,11,21.20
2016,04,18,11,12,21.20
2016,04,18,11,13,21.20
2016,04,18,11,14,21.20
2016,04,18,11,15,21.20
2016,04,18,11,16,21.10
2016,04,18,11,17,21.10
2016,04,18,11,18,21.10
2016,04,18,11,19,21.00
2016,04,18,11,20,20.90
2016,04,18,11,21,20.90
2016,04,18,11,22,21.00
2016,04,18,11,23,21.00
2016,04,18,11,24,21.00
2016,04,18,11,25,21.10
2016,04,18,11,26,21.10
2016,04,18,11,27,21.30
2016,04,18,11,28,21.30
2016,04,18,11,29,21.40
2016,04,18,11,30,21.40
2016,04,18,11,31,21.40
2016,04,18,11,32,21.50
2016,04,18,11,33,21.50
2016,04,18,11,34,21.60
2016,04,18,11,35,21.70
2016,04,18,11,36,21.70
2016,04,18,11,37,21.80
2016,04,18,11,38,21.90
2016,04,18,11,39,22.00
2016,04,18,11,40,22.10
2016,04,18,11,41,22.20
2016,04,18,11,42,22.30
2016,04,18,11,43,22.30
2016,04,18,11,44,22.30
2016,04,18,11,45,22.40
2016,04,18,11,46,22.50
2016,04,18,11,47,22.60
2016,04,18,11,48,22.60
2016,04,18,11,49,22.70
2016,04,18,11,50,22.80
2016,04,18,11,51,22.80
2016,04,18,11,52,22.90
2016,04,18,11,53,22.90
2016,04,18,11,54,23.00
2016,04,18,11,55,23.00
2016,04,18,11,56,23.10
2016,04,18,11,57,23.20
2016,04,18,11,58,23.20
2016,04,18,11,59,23.20
2016,04,18,12,00,23.20
2016,04,18,12,01,23.20
2016,04,18,12,02,23.20
2016,04,18,12,03,23.20
2016,04,18,12,04,23.20
2016,04,18,12,05,23.30
2016,04,18,12,06,23.30
2016,04,18,12,07,23.30
2016,04,18,12,08,23.20
2016,04,18,12,09,23.10
2016,04,18,12,10,23.10
2016,04,18,12,11,23.20
2016,04,18,12,12,23.20
2016,04,18,12,13,23.20
2016,04,18,12,14,23.30
2016,04,18,12,15,23.30
2016,04,18,12,16,23.30
2016,04,18,12,17,23.40
2016,04,18,12,18,23.50
2016,04,18,12,19,23.60
2016,04,18,12,20,23.70
2016,04,18,12,21,23.70
2016,04,18,12,22,23.70
2016,04,18,12,23,23.70
2016,04,18,12,24,23.70
2016,04,18,12,25,23.70
2016,04,18,12,26,23.60
2016,04,18,12,27,23.50
2016,04,18,12,28,23.60
2016,04,18,12,29,23.60
2016,04,18,12,30,23.70
2016,04,18,12,31,23.80
2016,04,18,12,32,23.80
2016,04,18,12,33,23.80
2016,04,18,12,34,23.90
2016,04,18,12,35,24.00
2016,04,18,12,36,24.10
2016,04,18,12,37,24.20
2016,04,18,12,38,24.20
2016,04,18,12,39,24.20
2016,04,18,12,40,24.20
2016,04,18,12,41,24.30
2016,04,18,12,42,24.30
2016,04,18,12,43,24.40
2016,04,18,12,44,24.50
2016,04,18,12,45,24.70
2016,04,18,12,46,24.80
2016,04,18,12,47,24.80
2016,04,18,12,48,25.00
2016,04,18,12,49,25.10
2016,04,18,12,50,25.20
2016,04,18,12,51,25.30
2016,04,18,12,52,25.30
2016,04,18,12,53,25.40
2016,04,18,12,54,25.40
2016,04,18,12,55,25.40
2016,04,18,12,56,25.50
2016,04,18,12,57,25.60
2016,04,18,12,58,25.60
2016,04,18,12,59,25.60
2016,04,18,13,00,25.60
2016,04,18,13,01,25.60
2016,04,18,13,02,25.60
2016,04,18,13,03,25.40
2016,04,18,13,04,25.40
2016,04,18,13,05,25.30
2016,04,18,13,06,25.30
2016,04,18,13,07,25.30
2016,04,18,13,08,25.30
2016,04,18,13,09,25.20
2016,04,18,13,10,25.10
2016,04,18,13,11,25.20
2016,04,18,13,12,25.20
2016,04,18,13,13,25.20
2016,04,18,13,14,25.30
2016,04,18,13,15,25.30
2016,04,18,13,16,25.30
2016,04,18,13,17,25.40
2016,04,18,13,18,25.40
2016,04,18,13,19,25.50
2016,04,18,13,20,25.50
2016,04,18,13,21,25.50
2016,04,18,13,22,25.40
2016,04,18,13,23,25.40
2016,04,18,13,24,25.30
2016,04,18,13,25,25.30
2016,04,18,13,26,25.30
2016,04,18,13,27,25.20
2016,04,18,13,28,25.20
2016,04,18,13,29,25.40
2016,04,18,13,30,25.60
2016,04,18,13,31,25.80
2016,04,18,13,32,25.90
2016,04,18,13,33,25.80
2016,04,18,13,34,25.90
2016,04,18,13,35,26.00
2016,04,18,13,36,26.20
2016,04,18,13,37,26.30
2016,04,18,13,38,26.40
2016,04,18,13,39,26.40
2016,04,18,13,40,26.50
2016,04,18,13,41,26.40
2016,04,18,13,42,26.40
2016,04,18,13,43,26.40
2016,04,18,13,44,26.30
2016,04,18,13,45,26.30
2016,04,18,13,46,26.10
2016,04,18,13,47,26.00
2016,04,18,13,48,26.00
2016,04,18,13,49,26.00
2016,04,18,13,50,26.10
2016,04,18,13,51,26.10
2016,04,18,13,52,26.20
2016,04,18,13,53,26.20
2016,04,18,13,54,26.40
2016,04,18,13,55,26.50
2016,04,18,13,56,26.70
2016,04,18,13,57,26.80
2016,04,18,13,58,26.80
2016,04,18,13,59,26.70
2016,04,18,14,00,26.60
2016,04,18,14,01,26.40
2016,04,18,14,02,26.30
2016,04,18,14,03,26.10
2016,04,18,14,04,25.90
2016,04,18,14,05,25.80
2016,04,18,14,06,25.80
2016,04,18,14,07,25.80
2016,04,18,14,08,25.90
2016,04,18,14,09,25.90
2016,04,18,14,10,26.10
2016,04,18,14,11,26.20
2016,04,18,14,12,26.30
2016,04,18,14,13,26.40
2016,04,18,14,14,26.50
2016,04,18,14,15,26.50
2016,04,18,14,16,26.60
2016,04,18,14,17,26.70
2016,04,18,14,18,26.80
2016,04,18,14,19,26.90
2016,04,18,14,20,26.90
2016,04,18,14,21,26.90
2016,04,18,14,22,26.90
2016,04,18,14,23,26.80
2016,04,18,14,24,26.70
2016,04,18,14,25,26.70
2016,04,18,14,26,26.70
2016,04,18,14,27,26.70
2016,04,18,14,28,26.80
2016,04,18,14,29,26.80
2016,04,18,14,30,26.90
2016,04,18,14,31,26.80
2016,04,18,14,32,26.70
2016,04,18,14,33,26.50
2016,04,18,14,34,26.40
2016,04,18,14,35,26.30
2016,04,18,14,36,26.20
2016,04,18,14,37,26.10
2016,04,18,14,38,25.90
2016,04,18,14,39,25.80
2016,04,18,14,40,25.70
2016,04,18,14,41,25.50
2016,04,18,14,42,25.50
2016,04,18,14,43,25.60
2016,04,18,14,44,25.70
2016,04,18,14,45,25.80
2016,04,18,14,46,26.00
2016,04,18,14,47,26.00
2016,04,18,14,48,26.10
2016,04,18,14,49,26.30
2016,04,18,14,50,26.50
2016,04,18,14,51,26.80
2016,04,18,14,52,27.00
2016,04,18,14,53,27.10
2016,04,18,14,54,27.20
2016,04,18,14,55,27.20
2016,04,18,14,56,27.20
2016,04,18,14,57,27.30
2016,04,18,14,58,27.40
2016,04,18,14,59,27.50
2016,04,18,15,00,27.50
2016,04,18,15,01,27.50
2016,04,18,15,02,27.50
2016,04,18,15,03,27.60
2016,04,18,15,04,27.60
2016,04,18,15,05,27.50
2016,04,18,15,06,27.40
2016,04,18,15,07,27.50
2016,04,18,15,08,27.60
2016,04,18,15,09,27.60
2016,04,18,15,10,27.60
2016,04,18,15,11,27.60
2016,04,18,15,12,27.50
2016,04,18,15,13,27.40
2016,04,18,15,14,27.30
2016,04,18,15,15,27.30
2016,04,18,15,16,27.40
2016,04,18,15,17,27.50
2016,04,18,15,18,27.60
2016,04,18,15,19,27.70
2016,04,18,15,20,27.70
2016,04,18,15,21,27.80
2016,04,18,15,22,27.80
2016,04,18,15,23,27.80
2016,04,18,15,24,27.70
2016,04,18,15,25,27.70
2016,04,18,15,26,27.80
2016,04,18,15,27,27.90
2016,04,18,15,28,28.00
2016,04,18,15,29,28.10
2016,04,18,15,30,28.10
2016,04,18,15,31,28.10
2016,04,18,15,32,27.90
2016,04,18,15,33,27.70
2016,04,18,15,34,27.50
2016,04,18,15,35,27.30
2016,04,18,15,36,27.20
2016,04,18,15,37,27.20
2016,04,18,15,38,27.20
2016,04,18,15,39,27.20
2016,04,18,15,40,27.20
2016,04,18,15,41,27.20
2016,04,18,15,42,27.20
2016,04,18,15,43,27.20
2016,04,18,15,44,27.20
2016,04,18,15,45,27.20
2016,04,18,15,46,27.20
2016,04,18,15,47,27.20
2016,04,18,15,48,27.20
2016,04,18,15,49,27.20
2016,04,18,15,50,27.30
2016,04,18,15,51,27.30
2016,04,18,15,52,27.20
2016,04,18,15,53,27.20
2016,04,18,15,54,27.00
2016,04,18,15,55,26.90
2016,04,18,15,56,26.80
2016,04,18,15,57,26.70
2016,04,18,15,58,26.60
2016,04,18,15,59,26.50
2016,04,18,16,00,26.50
2016,04,18,16,01,26.60
2016,04,18,16,02,26.60
2016,04,18,16,03,26.40
2016,04,18,16,04,26.20
2016,04,18,16,05,26.00
2016,04,18,16,06,25.80
2016,04,18,16,07,25.50
2016,04,18,16,08,25.30
2016,04,18,16,09,25.00
2016,04,18,16,10,24.90
2016,04,18,16,11,24.80
2016,04,18,16,12,24.80
2016,04,18,16,13,24.70
2016,04,18,16,14,24.70
2016,04,18,16,15,24.70
2016,04,18,16,16,24.80
2016,04,18,16,17,24.80
2016,04,18,16,18,24.80
2016,04,18,16,19,24.80
2016,04,18,16,20,24.80
2016,04,18,16,21,24.80
2016,04,18,16,22,24.80
2016,04,18,16,23,24.80
2016,04,18,16,24,24.70
2016,04,18,16,25,24.70
2016,04,18,16,26,24.70
2016,04,18,16,27,24.80
2016,04,18,16,28,24.80
2016,04,18,16,29,24.90
2016,04,18,16,30,25.10
2016,04,18,16,31,25.50
2016,04,18,16,32,25.90
2016,04,18,16,33,26.20
2016,04,18,16,34,26.20
2016,04,18,16,35,26.20
2016,04,18,16,36,26.20
2016,04,18,16,37,26.20
2016,04,18,16,38,26.20
2016,04,18,16,39,26.20
2016,04,18,16,40,26.20
2016,04,18,16,41,26.20
2016,04,18,16,42,26.30
2016,04,18,16,43,26.30
2016,04,18,16,44,26.50
2016,04,18,16,45,26.60
2016,04,18,16,46,26.80
2016,04,18,16,47,26.80
2016,04,18,16,48,26.80
2016,04,18,16,49,26.90
2016,04,18,16,50,26.90
2016,04,18,16,51,27.00
2016,04,18,16,52,27.10
2016,04,18,16,53,27.00
2016,04,18,16,54,26.90
2016,04,18,16,55,26.80
2016,04,18,16,56,26.60
2016,04,18,16,57,26.40
2016,04,18,16,58,26.30
2016,04,18,16,59,26.30
2016,04,18,17,00,26.20
2016,04,18,17,01,26.20
2016,04,18,17,02,26.10
2016,04,18,17,03,26.00
2016,04,18,17,04,25.90
2016,04,18,17,05,25.90
2016,04,18,17,06,25.80
2016,04,18,17,07,25.90
2016,04,18,17,08,25.90
2016,04,18,17,09,25.90
2016,04,18,17,10,25.90
2016,04,18,17,11,25.80
2016,04,18,17,12,25.70
2016,04,18,17,13,25.60
2016,04,18,17,14,25.40
2016,04,18,17,15,25.30
2016,04,18,17,16,25.20
2016,04,18,17,17,25.10
2016,04,18,17,18,25.10
2016,04,18,17,19,25.10